Location: ????????
(55.5667°N, 37.5833°E)
Time: 18:36:15
(UTC+00:00)

Landsat 5 - Pass Details

Date: 14 April 2026
Orbit: 506 x 601 km, 98.1° (Epoch: 19 May)

Event Time Altitude Azimuth Distance (km) Brightness Sun altitude
Rises 22:08:21 0° 15° (NNE) 2,829 8.4 -24.3°
Reaches altitude 10° 22:10:30 10° 14° (NNE) 1,934 7.2 -24.2°
Enters shadow 22:14:37 81° 322° (NW) 612 3.4 -24.1°
